Voltar ao catálogo

SL-14 DEB

AtivoPO
NORAD 69734·DEBRIS·🇨🇳 China

Lançado Jan 17, 1986 de Plesetsk Cosmodrome

Loading…

Próximas Passagens (próximas 24 horas)

TLE

AtualizadoSource: Space-Track

Época: Sep 14, 2026, 11:55 UTC

1 69734U 86006C   26257.49667383  .00000256  00000-0  28410-4 0  9999
2 69734  82.5463  90.0436 0113998  35.6662 325.2097 14.78043333 68637

Acompanhe SL-14 DEB em tempo real com AllMySat

Download on the App Store